TimeMDT,TemperatureF,Dew PointF,Humidity,Sea Level PressureIn,VisibilityMPH,Wind Direction,Wind SpeedMPH,Gust SpeedMPH,PrecipitationIn,Events,Conditions,WindDirDegrees,DateUTC
12:53 AM,59.0,25.0,27,29.80,10.0,WSW,8.1,-,N/A,,Clear,240,2013-05-15 06:53:00
1:53 AM,54.0,26.1,34,29.81,10.0,SW,6.9,-,N/A,,Clear,220,2013-05-15 07:53:00
2:53 AM,55.9,26.1,32,29.80,10.0,South,9.2,-,N/A,,Clear,190,2013-05-15 08:53:00
3:53 AM,57.9,24.1,27,29.80,10.0,SE,6.9,-,N/A,,Clear,140,2013-05-15 09:53:00
4:53 AM,55.9,24.1,29,29.79,10.0,SE,4.6,-,N/A,,Clear,130,2013-05-15 10:53:00
5:53 AM,57.9,21.0,24,29.77,10.0,Calm,Calm,-,N/A,,Clear,0,2013-05-15 11:53:00
6:53 AM,48.0,26.1,42,29.82,10.0,North,8.1,-,N/A,,Clear,350,2013-05-15 12:53:00
7:53 AM,57.9,28.9,33,29.82,9.0,Calm,Calm,-,N/A,,Clear,0,2013-05-15 13:53:00
8:53 AM,64.9,35.1,33,29.82,10.0,WNW,5.8,-,N/A,,Clear,300,2013-05-15 14:53:00
9:53 AM,71.1,21.9,16,29.81,10.0,SW,19.6,25.3,N/A,,Clear,220,2013-05-15 15:53:00
10:53 AM,72.0,19.0,13,29.82,10.0,SW,18.4,26.5,N/A,,Clear,220,2013-05-15 16:53:00
11:53 AM,73.0,19.0,13,29.83,10.0,SSW,19.6,28.8,N/A,,Clear,210,2013-05-15 17:53:00
12:53 PM,73.9,19.0,13,29.82,10.0,South,15.0,24.2,N/A,,Clear,180,2013-05-15 18:53:00
1:53 PM,71.1,19.9,14,29.83,10.0,SW,11.5,27.6,N/A,,Partly Cloudy,220,2013-05-15 19:53:00
2:53 PM,75.0,21.0,13,29.80,10.0,West,12.7,20.7,N/A,,Clear,260,2013-05-15 20:53:00
3:53 PM,77.0,19.9,12,29.78,10.0,WSW,10.4,18.4,N/A,,Clear,240,2013-05-15 21:53:00
4:53 PM,75.9,25.0,15,29.77,10.0,WNW,12.7,16.1,N/A,,Clear,300,2013-05-15 22:53:00
5:53 PM,77.0,23.0,13,29.75,10.0,SW,15.0,23.0,N/A,,Clear,220,2013-05-15 23:53:00
6:53 PM,75.0,21.0,13,29.77,10.0,SW,9.2,21.9,N/A,,Clear,220,2013-05-16 00:53:00
7:53 PM,72.0,21.0,15,29.75,10.0,SW,13.8,19.6,N/A,,Clear,220,2013-05-16 01:53:00
8:53 PM,64.9,23.0,20,29.76,10.0,SW,8.1,-,N/A,,Clear,220,2013-05-16 02:53:00
9:53 PM,66.0,21.9,19,29.75,10.0,South,10.4,-,N/A,,Clear,180,2013-05-16 03:53:00
10:53 PM,62.1,26.1,25,29.76,10.0,SSW,6.9,-,N/A,,Clear,200,2013-05-16 04:53:00
11:53 PM,57.9,28.0,32,29.76,10.0,SSW,4.6,-,N/A,,Clear,200,2013-05-16 05:53:00